Weather History for LTAU - October, 2012

Change the Weather History Date:

Monday, October 29, 2012

  Actual Average Record
Temperature  
Mean Temperature 54 °F -  
Max Temperature 74 °F 53 °F 74 °F (2012)
Min Temperature 35 °F 29 °F 24 °F (2011)
Degree Days  
Heating Degree Days 10    
Growing Degree Days 4 (Base 50)    
Moisture  
Dew Point 38 °F    
Average Humidity 60    
Maximum Humidity 93    
Minimum Humidity 17    
Precipitation  
Precipitation 0.00 in - - ()
Sea Level Pressure  
Sea Level Pressure 30.09 in    
Wind  
Wind Speed 1 mph ()    
Max Wind Speed 5 mph    
Max Gust Speed -    
Visibility 8.2 miles    
Events      
Averages and records for this station are not official NWS values.
T = Trace of Precipitation, MM = Missing Value Source: Averaged Metar Reports

Daily Weather History Graph

Daily Weather History Graph

Search for Another Location

Airport or City:

Trip Planner

Search our weather history database for the weather conditions in past years. The results will help you decide how hot, cold, wet, or windy it might be!

Date:

Astronomy

Oct. 29, 2012 Rise Set
Actual Time 6:01 AM EET 4:40 PM EET
Civil Twilight 5:34 AM EET 5:08 PM EET
Nautical Twilight 5:03 AM EET 5:39 PM EET
Astronomical Twilight 4:32 AM EET 6:10 PM EET
Moon 4:21 PM EET (10/29) 5:32 AM EET (10/29)
Length of Visible Light 11h 33m
Length of Day
10h 39m
Full, 100% of the Moon is Illuminated
Oct 29
Full
Oct 29
Full
Nov 7
Last Quarter
Nov 14
New
Nov 20
First Quarter

Hourly Weather History & Observations

Time (EET) Temp. Windchill Dew Point Humidity Pressure Visibility Wind Dir Wind Speed Gust Speed Precip Events Conditions
12:20 AM 42.8 °F - 35.6 °F 76% 30.18 in - Calm Calm - N/A   Clear
12:50 AM 42.8 °F - 37.4 °F 81% 30.18 in - ENE 2.3 mph - N/A   Clear
1:20 AM 41.0 °F - 35.6 °F 81% 30.18 in - Calm Calm - N/A   Clear
1:50 AM 41.0 °F - 35.6 °F 81% 30.18 in - ENE 1.2 mph - N/A   Clear
2:00 AM 41 °F - 37 °F 82%  in 12 mi ENE 1.2 mph - -  
2:20 AM 39.2 °F - 35.6 °F 87% 30.18 in - Calm Calm - N/A   Clear
2:50 AM 37.4 °F 33.8 °F 33.8 °F 87% 30.18 in - NE 4.6 mph - N/A   Clear
3:20 AM 39.2 °F 37.0 °F 35.6 °F 87% 30.18 in - NE 3.5 mph - N/A   Clear
3:50 AM 39.2 °F 35.9 °F 35.6 °F 87% 30.15 in - East 4.6 mph - N/A   Clear
4:20 AM 39.2 °F - 35.6 °F 87% 30.18 in - Calm Calm - N/A   Clear
4:50 AM 37.4 °F - 35.6 °F 93% 30.18 in - Calm Calm - N/A   Clear
5:20 AM 37.4 °F - 33.8 °F 87% 30.18 in - Calm Calm - N/A   Clear
5:50 AM 37.4 °F - 33.8 °F 87% 30.18 in - Calm Calm - N/A   Clear
6:20 AM 35.6 °F - 33.8 °F 93% 30.15 in - ENE 2.3 mph - N/A   Clear
6:50 AM 39.2 °F - 37.4 °F 93% 30.18 in - NNE 2.3 mph - N/A   Clear
7:20 AM 44.6 °F 42.2 °F 39.2 °F 81% 30.18 in - NE 4.6 mph - N/A   Clear
7:50 AM 46.4 °F - 39.2 °F 76% 30.18 in - Variable 2.3 mph - N/A   Clear
8:00 AM 47 °F - 40 °F 69%  in 12 mi NE 2.3 mph - -   Clear
8:20 AM 51.8 °F - 41.0 °F 67% 30.18 in - Calm Calm - N/A   Clear
8:50 AM 55.4 °F - 42.8 °F 63% 30.15 in - Calm Calm - N/A   Clear
9:20 AM 59.0 °F - 42.8 °F 55% 30.15 in - Calm Calm - N/A   Clear
9:50 AM 60.8 °F - 39.2 °F 45% 30.12 in - Variable 2.3 mph - N/A   Clear
10:20 AM 64.4 °F - 39.2 °F 40% 30.12 in - Variable 1.2 mph - N/A   Clear
10:50 AM 66.2 °F - 39.2 °F 37% 30.12 in - Variable 2.3 mph - N/A   Clear
11:20 AM 68.0 °F - 37.4 °F 33% 30.09 in - Variable 2.3 mph - N/A   Clear
11:50 AM 69.8 °F - 37.4 °F 31% 30.09 in - Variable 2.3 mph - N/A   Clear
12:20 PM 71.6 °F - 39.2 °F 31% 30.06 in - Variable 1.2 mph - N/A   Clear
12:50 PM 73.4 °F - 39.2 °F 29% 30.06 in 6.2 mi Variable 2.3 mph - N/A   Scattered Clouds
1:20 PM 71.6 °F - 39.2 °F 31% 30.06 in 6.2 mi SSW 4.6 mph - N/A   Scattered Clouds
1:50 PM 73.4 °F - 37.4 °F 27% 30.04 in 6.2 mi Variable 1.2 mph - N/A   Scattered Clouds
2:00 PM 72 °F - 37 °F 17%  in 12 mi SSW 1.2 mph - -   Scattered Clouds
2:20 PM 73.4 °F - 37.4 °F 27% 30.04 in 6.2 mi Variable 2.3 mph - N/A   Scattered Clouds
2:50 PM 73.4 °F - 37.4 °F 27% 30.04 in 6.2 mi Variable 2.3 mph - N/A   Scattered Clouds
3:20 PM 71.6 °F - 37.4 °F 29% 30.04 in 6.2 mi Variable 1.2 mph - N/A   Scattered Clouds
3:50 PM 71.6 °F - 35.6 °F 27% 30.04 in - Calm Calm - N/A   Clear
4:20 PM 66.2 °F - 41.0 °F 40% 30.01 in 5.0 mi Calm Calm - N/A   Unknown
4:50 PM 62.6 °F - 42.8 °F 48% 30.01 in - Calm Calm - N/A   Clear
5:20 PM 60.8 °F - 41.0 °F 48% 30.01 in - North 1.2 mph - N/A   Clear
5:50 PM 57.2 °F - 39.2 °F 51% 30.01 in - NNE 3.5 mph - N/A   Clear
6:20 PM 57.2 °F - 39.2 °F 51% 30.01 in - NNE 2.3 mph - N/A   Clear
6:50 PM 55.4 °F - 37.4 °F 51% 30.01 in - Variable 2.3 mph - N/A   Clear
7:20 PM 55.4 °F - 35.6 °F 47% 30.01 in - WNW 2.3 mph - N/A   Clear
7:50 PM 53.6 °F - 37.4 °F 54% 30.04 in - Variable 2.3 mph - N/A   Clear
8:00 PM 54 °F - 36 °F 38%  in 12 mi North 1.2 mph - -   Scattered Clouds
8:20 PM 53.6 °F - 37.4 °F 54% 30.04 in - Calm Calm - N/A   Clear
8:50 PM 50.0 °F - 39.2 °F 66% 30.01 in - Calm Calm - N/A   Clear
9:20 PM 48.2 °F - 39.2 °F 71% 30.04 in - Calm Calm - N/A   Clear
9:50 PM 50.0 °F - 39.2 °F 66% 30.01 in - Calm Calm - N/A   Clear
10:20 PM 48.2 °F - 39.2 °F 71% 30.01 in - Calm Calm - N/A   Clear
10:50 PM 46.4 °F - 39.2 °F 76% 30.01 in - Calm Calm - N/A   Clear
11:20 PM 46.4 °F - 37.4 °F 71% 30.01 in - Calm Calm - N/A   Clear
11:50 PM 44.6 °F - 35.6 °F 71% 30.01 in - West 2.3 mph - N/A   Clear